Погода в Магадане

Погода в Магадане : погода сейчас, прогноз погоды и архив. Всё, что Вы хотите узнать о погоде в Магадане!

Хотите узнать прогноз погоды в Магадане? Тогда Вам сюда: Погода в Магадане

Поиск расширенной информации на нашем сайте:

Другие новости

Новости СМИ2

Главная страница сайта

Новости сайта

03.07.2017

Напоминаем, что на нашем специализированном сайте Метеоцентр.Азия вы можете получить высокодетализированные автоматические прогнозы погоды по пунктам России, СНГ и мира в авиационном формате (включающие направление и скорость ветра, видимость, явления погоды, количество и форму облачности, нижнюю и верхнюю границу облачности).

Рекомендуем: Дисконтная программа в магазине www.minisoft.com.ua.

Погода в Магадане - сегодня

Время (UTC), дата Ветер
(°,м/с) 
Видим.   Явления Облачность Т
(°С)
Тd
(°С)
f(%) Тe
(°С)
Pmin
(гПа)
dP
(гПа)
Po
(мм)
O2
(г/м3)
Тmin Tmax R s Состояние
почвы
06 12.12.17 070 (В) 6{13}  20000 м  {ливн. осадки}  9/9 600 м кучево-дожд., средняя 
[Cb calv|Ac trans]
-8.5 -14.7 61 -14  1023.9  0.9  756  316           
09 12.12.17 070 (В) 9-15{17}  4000 м  метель  9/8 600 м кучево-дожд., средняя 
[Cb calv|Ac trans]
-9.4 -15.5 61 -16  1024  0.1  757  317    -7.7     
12 12.12.17 060 (СВ) 6{15}  20000 м  позёмок  5/5 600 м кучево-дожд. 
[Cb calv]
-11.6 -17.9 60 -17  1023.8  -0.3  756  320           
15 12.12.17 050 (СВ) 4{11}  20000 м    ясно 
-12.8 -19 60 -17  1022.9  -1  756  321           
18 12.12.17 070 (В) 20000 м    ясно 
-15 -22.6 52 -21  1021.9  -1.1  755  323           
21 12.12.17 090 (В) 4{10}  20000 м    3/0 верхняя 
[Ci fib]
-15.8 -22.6 56 -21  1021.6  -0.3  755  324  -16.1      38  неравномерный
сухой снег
100% 
00 13.12.17 100 (В) 20000 м    9/4 600 м кучево-дожд., верхняя 
[Cb calv|Ci fib]
-14.7 -23.2 48 -21  1020.6  -0.9  754  323  -16.5         
03 13.12.17 090 (В) 20000 м    9/3 1000 м верхняя 
[Sc|Ci fib]
-13.4 -24.6 38 -17  1019.4  -1.1  753  321           
06 13.12.17 070 (В) 20000 м    8/1 1000 м верхняя 
[Sc|Ci fib]
-15.4 -25.5 42 -19  1019.5  -0.1  753  323           
09 13.12.17 090 (В) 20000 м    6/1 1000 м верхняя 
[Sc|Ci fib]
-18 -26.9 46 -22  1019.9  0.2  753  327    -13.1       
12 13.12.17 100 (В) 20000 м    5/1 1000 м верхняя 
[Sc|Ci fib]
-17.2 -27.5 40 -22  1019.2  -0.6  753  325           
15 13.12.17 110 (В) 20000 м    9/4 1000 м верхняя 
[Sc|Ci fib]
-17.7 -25.6 50 -23  1018.1  -1.1  752  326           
18 13.12.17 080 (В) 20000 м    9/4 1000 м средняя, верхняя 
[Sc|Ac trans|Ci fib]
-18.1 -28.2 41 -22  1017.8  -0.3  752  326           
21 13.12.17 070 (В) 20000 м    9/5 1000 м средняя, верхняя 
[Sc|Ac trans|Ci fib]
-17.9 -28 41 -24  1017.5  -0.3  751  326  -19      38  неравномерный
сухой снег
100% 
00 14.12.17 100 (В) 20000 м    3/0 средняя, верхняя 
[Ac trans|Ci fib]
-18.9 -28.6 42 -26  1017.4  -0.2  751  327           
03 14.12.17 070 (В) 20000 м    1/0 средняя 
[Ac trans]
-17.2 -28.5 37 -22  1016.2  -1  750  324           
06 14.12.17 100 (В) 20000 м    4/1 1000 м средняя, верхняя 
[Sc|Ac trans|Ci fib]
-18.2 -27.9 42 -23  1015.3  -1  750  325           
09 14.12.17 090 (В) 20000 м    3/0 средняя 
[Ac trans]
-19 -28.5 43 -23  1014.5  -0.8  749  326    -17       
12 14.12.17 100 (В) 20000 м    4/0 средняя, верхняя 
[Ac trans|Ci fib]
-18.7 -28.3 43 -23  1013.1  -1.4  748  325           
15 14.12.17 080 (В) 20000 м    ясно 
-19.2 -28.9 42 -22  1011.8  -1.3  747  326           
18 14.12.17 060 (СВ) 20000 м    9/8 600 м кучево-дожд., средняя 
[Cb calv|Ac trans]
-17.7 -27.4 42 -20  1010.3  -1.4  746  323           
21 14.12.17 120 (ЮВ) 20000 м    9/8 600 м кучево-дожд., средняя 
[Cb calv|Ac trans]
-17.3 -28.2 38 -17  1009.1  -1.1  745  322  -20.1      38  неравномерный
сухой снег
100% 
00 15.12.17 080 (В) 20000 м    9/3 600 м кучево-дожд., средняя, верхняя 
[Cb calv|Ac trans|Ci fib]
-18.4 -28.2 42 -23  1009.3  0.1  745  324           
03 15.12.17 040 (СВ) 20000 м    4/3 1000 м верхняя 
[Sc|Ci fib]
-20.3 -28.7 47 -23  1010.3  0.9  746  326           
06 15.12.17 060 (СВ) 20000 м    3/1 1000 м средняя, верхняя 
[Sc|Ac trans|Ci fib]
-21.9 -30.5 46 -26  1010.7  0.3  746  329           
Время (UTC), дата Ветер
(°,м/с) 
Видим.   Явления Облачность Т
(°С)
Тd
(°С)
f(%) Тe
(°С)
Pmin
(гПа)
dP
(гПа)
Po
(мм)
O2
(г/м3)
Тmin Tmax R s Состояние
почвы

Для получения пояснительной информации подведите курсор к названию столбца.

ПОГОДА в Магадане - архив

Всё, что Вы хотите узнать о погоде в Магадане - удобно и подробно!

Выберите нужную дату (начиная с 1 января 2015* года) и нажмите кнопку "Найти".
Будут отображены архивные сводки погоды по пункту Магадан, начиная с указанной даты.


Отображать данные в формате CSV (для использования в таблицах Excel)


Внимание! Наш архив погоды предназначен исключительно для личного некоммерческого использования в познавательных целях. Если Вам необходимы официальные справки о состоянии погоды (для производственных, юридических, коммерческих и т.п. целей), обращайтесь в органы Росгидромета.

*Примечание: данная дата относится к архиву по метеостанциям СССР (Россия, СНГ, Балтия).
Архив по метеостанциям Зарубежной Европы и Азии (кроме Китая) хранится 10 дней, по другим регионам земного шара (Китай, Африка, Америка, Австралия, Океания) - 1 день.

Магадан - район местоположения метеостанции


Название, широта, долгота, высота метеостанции:
Магадан (город) 59.6°ш. 150.8°д. 116 м над ур. моря [Российская Федерация]

Дополнительная информация

В oтличие oт бoльшинства пoгoдных сайтoв мы публикуем пoдрoбную метеoинфoрмацию в детальнoм прoфессиoнальнoм фoрмате.

Характеристики температуры и влажнoсти вoздуха измеряются на высoте 2 м в тени вдали oт зданий и деревьев.
Скoрoсть ветра измеряется на высoте 10 м (на урoвне рoста челoвека скoрoсть ветра ниже в 1.5-2 раза). Если метеoстанция нахoдится в гoрoде или в лесу, тo скoрoсть ветра занижена на 2-4 м/с пo сравнению с oткрытым местoм. Скoрoсть ветра над акватoриями крупных рек и oзёр, а также на вершинах хoлмoв на 2-5 м/с выше, чем в oбычных услoвиях.
Атмoсфернoе давление в разных тoчках местнoсти мoжет значительнo oтличаться oт давления на метеoстанции, в зависимoсти oт услoвий рельефа (при пoдъёме на 10 м давление пoнижается примернo на 1 мм рт.ст.).